Location: ??????????
(54.8537°N, 38.8755°E)
Time: 22:06:44
(UTC+00:00)

Vanguard 2 Rocket - Pass Details

Date: 14 September 2024
Orbit: 553 x 3298 km, 32.9° (Epoch: 09 October)

Event Time Altitude Azimuth Distance (km) Brightness Sun altitude
Rises 03:50:04 0° 262° (W) 6,164 10.5 7.0°
Reaches altitude 10° 03:54:45 10° 251° (WSW) 5,507 10.4 7.6°
Maximum altitude 04:07:42 26° 203° (SSW) 4,861 10.5 9.5°
Drops below altitude 10° 04:22:15 10° 157° (SSE) 6,182 11.7 11.5°
Sets 04:28:03 0° 146° (SE) 7,030 12.2 12.4°
